Miscellaneous Local Product
Issued by NWS Hastings, NE

Home | Current Version | Previous Version | Text Only | Print | Product List | Glossary Off
Versions: 1 2 3 4 5 6 7 8 9 10 11 12 13 14 15 16 17 18 19 20 21 22 23 24 25 26 27 28 29 30 31 32 33 34 35 36 37 38 39 40 41 42 43 44 45 46 47 48 49 50

945
AXUS43 KGID 240902
MISGRI

GID CWA HOURLY WEATHER ROUNDUP
NATIONAL WEATHER SERVICE HASTINGS NE
400 AM CDT TUE OCT 24 2017

NOTE: "FAIR" INDICATES FEW OR NO CLOUDS BELOW 12,000 FEET WITH NO
SIGNIFICANT WEATHER AND/OR OBSTRUCTIONS TO VISIBILITY.

...SOUTH CENTRAL NEBRASKA...

CITY           SKY/WX    TMP DP  RH WIND       PRES   REMARKS
GRAND ISLAND   CLEAR     47  29  49 NW23G38   30.21S
KEARNEY        CLEAR     46  26  45 NW17      30.26R
HASTINGS       CLEAR     47  26  44 NW21G28   30.22R
ORD            CLEAR     45  29  53 NW22G41   30.23R
YORK           MOCLDY    46  32  57 N20       30.16S
AURORA         CLEAR     46  29  50 NW14G25   30.18S
LEXINGTON      CLEAR     46  26  44 NW18G24   30.30F
HOLDREGE       CLEAR     46  28  49 NW15G23   30.27S
HEBRON         PTCLDY    50  28  43 NW15G26   30.17S

...NEBRASKA PANHANDLE...

CITY           SKY/WX    TMP DP  RH WIND       PRES   REMARKS
CHADRON        CLEAR     35  19  52 NW13      30.47S WCI  26
ALLIANCE       CLEAR     32  19  58 W10       30.45S WCI  24
SCOTTSBLUFF    CLEAR     33  20  58 NW12      30.50F WCI  24
SIDNEY         CLEAR     35  20  54 NW16      30.48S WCI  25

...WESTERN AND NORTH CENTRAL NEBRASKA...

CITY           SKY/WX    TMP DP  RH WIND       PRES   REMARKS
VALENTINE      CLEAR     43  26  51 NW15      30.34R
AINSWORTH      CLEAR     42  28  58 NW17G25   30.31S
ONEILL         PTCLDY    43  32  63 NW22G30   30.23F
BROKEN BOW     CLEAR     45  26  47 NW24G33   30.28R
IMPERIAL       CLEAR     42  21  43 NW21G28   30.42F
NORTH PLATTE   CLEAR     44  25  47 NW14      30.35S
MCCOOK         CLEAR     42  24  49 NW15      30.36S

...EASTERN NEBRASKA...

CITY           SKY/WX    TMP DP  RH WIND       PRES   REMARKS
NORFOLK        CLEAR     44  30  57 NW32G41   30.12F
SO SIOUX CITY  CLEAR     43  31  62 NW28G38   30.03F
TEKAMAH        CLEAR     45  29  53 NW15G29   30.05F
COLUMBUS       PTCLDY    45  31  58 NW20G28   30.14S
ALBION         CLEAR     46  32  58 NW25G32   30.17S
OMAHA EPPLEY   PTCLDY    46  30  53 NW28G38   30.03S
OFFUTT AFB     CLEAR     46  29  50 NW23G32   30.03S
MILLARD        CLEAR     47  31  51 NW16G31   30.06S
LINCOLN        CLEAR     48  27  44 MISG      30.12R
NEBRASKA CITY  CLEAR     48  28  47 NW22G41   30.04S
BEATRICE       MOCLDY    50  32  50 N23G33    30.11S
FALLS CITY     MOCLDY    50  26  39 NW28G41   30.02F

...NORTHERN KANSAS...

CITY           SKY/WX    TMP DP  RH WIND       PRES   REMARKS
GOODLAND       CLEAR     38  21  50 NW13      30.43S WCI  30
HILL CITY      CLEAR     45  24  43 NW15      30.35S
NORTON         SUNNY     43  18  36 W16G23    30.33R
PHILLIPSBURG   CLEAR     46  23  39 W10       30.30R
SMITH CENTER   CLEAR     41  27  56 W13       30.26F
HAYS           CLEAR     48  23  37 NW14      30.31S
RUSSELL        CLEAR     49  25  39 NW20      30.27F
CONCORDIA      CLEAR     50  27  40 NW17G30   30.18F
SALINA         CLEAR     49  28  44 W15       30.21F
TOPEKA         CLEAR     50  33  52 W13       30.06F



USA.gov is the U.S. government's official web portal to all federal, state and local government web resources and services.